Temp
18 19 19 19 18 18 18 18 17 17 17 17 17 17 17 17 17 16 17 17 17 16 16 15 15 15 17 17 16 16 16 15 15 15 15 16 15 14 14 14 15 14 14
18 18 19 19 18 18 18 17 17 17 17 17 17 17 17 17 17 16 17 17 17 16 15 15 15 16 17 17 17 17 16 16 16 16 16 16 16 15 15 15 16 16 15
18 18 18 18 18 18 17 17 17 17 17 16 16 17 17 16 16 16 16 17 17 16 14 15 15 16 17 17 16 16 16 16 16 16 16 16 16 16 16 16 16 16 15
18 18 18 18 18 17 17 17 17 17 17 16 16 16 17 16 16 16 16 17 17 15 14 15 16 16 17 17 16 15 15 14 15 15 15 15 16 16 15 15 15 15 15
17 17 18 17 17 17 17 17 17 17 17 16 16 16 16 16 16 16 16 15 14 15 15 17 17 16 16 16 16 15 14 13 14 15 15 15 15 15 15 15 15 15 15
17 17 17 18 17 17 16 17 17 16 16 16 16 16 16 16 15 16 16 14 13 16 17 17 17 16 16 16 16 15 14 14 13 14 15 15 15 15 15 15 15 14 14
16 17 17 17 17 16 16 16 16 16 16 16 16 16 16 16 15 14 15 13 13 17 17 16 17 16 16 16 16 15 14 14 14 14 14 15 15 15 15 14 14 14 14
17 16 16 16 16 16 16 16 16 16 15 16 15 15 15 15 14 14 15 13 17 16 16 16 16 16 16 16 16 15 15 14 14 14 14 15 15 15 14 14 14 14 14
17 16 15 15 14 14 15 15 15 16 15 16 15 15 15 15 14 15 15 14 15 16 17 17 16 16 16 16 16 15 15 14 14 14 14 14 14 14 14 14 14 14 13
17 16 15 15 14 13 13 13 14 15 15 15 15 15 15 14 14 15 15 14 15 16 16 17 16 16 16 16 16 15 15 14 14 14 14 14 14 14 14 14 13 13 13
17 17 16 14 14 14 14 13 13 14 16 15 15 15 14 14 14 14 14 14 16 16 16 16 16 16 16 16 16 15 15 15 14 14 14 14 14 14 14 13 13 13 13
18 17 17 16 15 14 13 13 12 13 14 15 14 14 15 14 15 14 15 15 15 15 16 16 16 16 16 16 15 15 15 14 14 14 14 14 14 13 13 13 13 13 12
16 16 17 16 16 16 13 11 12 12 12 14 14 14 14 14 15 16 16 16 16 15 16 16 16 16 16 16 15 15 14 14 14 14 14 14 13 13 13 13 12 12 13
15 15 14 14 14 13 13 12 12 12 12 13 13 14 14 14 15 16 16 16 16 16 16 16 16 16 15 15 15 14 14 14 14 13 13 13 13 13 13 13 13 12 12
16 15 13 13 13 13 15 13 13 12 12 12 13 14 13 14 15 15 16 16 16 15 16 16 16 16 15 15 15 14 14 14 14 13 13 13 13 13 13 13 13 13 12
15 14 13 13 12 12 12 14 13 13 12 12 13 13 13 14 15 14 15 16 16 15 16 16 16 15 15 15 14 14 14 13 14 14 14 14 13 13 13 13 12 12 12
15 13 13 13 13 12 11 12 14 13 12 13 14 13 13 13 13 14 14 15 15 15 15 16 15 14 14 14 14 13 14 14 14 14 14 14 14 13 13 13 13 12 12
15 14 13 13 13 12 12 12 15 12 12 13 13 13 13 13 13 13 14 15 15 15 15 14 14 14 14 14 14 14 14 14 15 15 14 14 14 13 13 13 12 12 12
14 14 13 13 13 12 12 12 15 12 12 12 13 13 13 13 13 13 14 14 14 14 14 14 14 14 13 13 13 13 14 14 14 14 14 14 14 13 13 13 13 13 13
13 14 11 12 12 11 11 12 15 13 12 12 13 13 13 13 14 13 13 13 13 13 13 13 13 14 14 13 13 13 14 14 14 14 14 14 13 13 13 13 13 13 13
13 13 13 11 11 11 11 11 11 13 12 12 12 13 13 13 13 13 13 13 13 13 13 13 13 13 13 13 13 13 13 14 14 14 14 14 14 13 13 14 13 13 13
12 12 12 12 11 10 11 11 11 12 12 12 12 12 13 13 13 13 13 13 13 13 13 13 13 13 13 13 13 13 13 13 14 14 14 13 13 13 13 13 13 13 13
10 11 10 12 10 10 11 11 11 12 12 11 12 12 11 12 13 14 14 14 14 14 14 14 13 13 13 13 13 13 12 13 13 14 14 13 13 13 13 13 13 13 12
10 10 11 10 11 10 10 11 11 11 12 12 11 11 12 12 12 12 12 13 14 14 14 14 14 13 13 14 13 13 12 13 12 11 12 12 12 13 13 12 12 12 11
11 10 10 10 10 10 10 10 10 11 11 12 11 11 11 11 12 12 12 12 12 13 13 13 13 14 14 14 14 14 13 12 11 11 10 10 11 11 11 10 10 10 10
9 10 9 9 10 10 10 10 10 10 10 11 11 11 12 12 11 12 12 13 13 12 13 13 12 12 12 12 13 13 13 13 12 11 10 10 10 10 10 10 10 10 10
Height
1501 1503 1505 1509 1511 1514 1516 1519 1521 1522 1524 1526 1528 1530 1533 1534 1535 1536 1537 1538 1540 1542 1543 1544 1545 1545 1546 1547 1548 1548 1549 1549 1550 1550 1550 1551 1551 1551 1551 1551 1550 1550 1549
1501 1503 1505 1508 1511 1514 1517 1519 1521 1522 1524 1526 1527 1530 1532 1533 1535 1536 1537 1538 1540 1542 1544 1545 1546 1547 1548 1548 1549 1550 1551 1551 1551 1552 1552 1552 1552 1552 1552 1552 1551 1551 1551
1500 1503 1504 1507 1509 1513 1516 1519 1520 1522 1524 1525 1527 1529 1531 1533 1534 1536 1537 1538 1540 1542 1543 1546 1547 1548 1549 1550 1551 1552 1552 1553 1553 1553 1554 1554 1554 1554 1554 1553 1553 1552 1552
1499 1502 1505 1506 1510 1512 1515 1518 1520 1521 1523 1525 1527 1528 1531 1533 1535 1536 1537 1538 1539 1541 1543 1545 1547 1549 1550 1551 1552 1553 1554 1554 1554 1555 1555 1555 1555 1555 1555 1555 1555 1554 1554
1499 1501 1505 1507 1510 1512 1515 1517 1520 1521 1522 1524 1526 1528 1530 1532 1534 1536 1537 1539 1539 1541 1543 1545 1547 1550 1551 1552 1554 1555 1555 1555 1556 1556 1557 1557 1557 1556 1556 1556 1556 1555 1555
1498 1502 1505 1506 1510 1512 1515 1517 1519 1521 1522 1523 1525 1527 1529 1531 1534 1536 1537 1539 1540 1541 1543 1545 1547 1550 1552 1553 1554 1556 1556 1557 1557 1558 1558 1558 1558 1558 1558 1557 1557 1557 1556
1499 1503 1505 1507 1509 1513 1515 1517 1519 1521 1522 1523 1524 1526 1528 1530 1532 1535 1537 1538 1540 1541 1544 1546 1548 1550 1552 1554 1555 1556 1557 1558 1557 1559 1559 1560 1560 1559 1559 1559 1558 1558 1557
1499 1502 1506 1507 1508 1513 1515 1516 1519 1521 1522 1523 1525 1526 1528 1529 1531 1533 1536 1538 1539 1542 1544 1546 1549 1550 1552 1554 1556 1557 1557 1558 1558 1559 1560 1560 1560 1560 1560 1560 1559 1559 1558
1498 1503 1504 1503 1504 1512 1516 1517 1519 1521 1522 1524 1525 1526 1527 1529 1530 1531 1535 1537 1540 1542 1544 1546 1549 1551 1553 1555 1556 1557 1558 1558 1559 1559 1560 1561 1561 1561 1560 1560 1560 1559 1559
1499 1503 1502 1502 1501 1504 1510 1514 1521 1522 1522 1523 1524 1526 1527 1528 1530 1530 1532 1537 1539 1542 1544 1546 1549 1551 1553 1555 1557 1558 1558 1559 1559 1559 1560 1561 1561 1561 1561 1560 1560 1559 1559
1496 1501 1501 1501 1501 1503 1506 1510 1515 1521 1521 1522 1523 1524 1525 1526 1528 1530 1531 1535 1538 1541 1544 1546 1548 1551 1553 1554 1556 1558 1558 1559 1559 1559 1560 1560 1561 1561 1560 1560 1560 1559 1559
1493 1497 1499 1500 1502 1500 1503 1507 1515 1517 1521 1521 1520 1522 1522 1522 1525 1528 1531 1533 1538 1541 1543 1545 1548 1550 1552 1554 1555 1557 1558 1559 1559 1559 1560 1560 1561 1560 1560 1560 1559 1559 1558
1490 1492 1494 1495 1495 1499 1494 1505 1513 1519 1517 1518 1519 1517 1519 1520 1523 1526 1528 1531 1535 1540 1542 1544 1546 1549 1551 1552 1554 1555 1557 1559 1558 1559 1560 1560 1560 1560 1560 1559 1559 1558 1558
1487 1488 1489 1490 1491 1490 1492 1496 1508 1514 1514 1514 1516 1513 1515 1518 1520 1523 1525 1530 1534 1538 1541 1543 1545 1547 1549 1551 1552 1554 1555 1557 1558 1558 1559 1560 1560 1559 1559 1559 1559 1558 1557
1481 1483 1486 1486 1483 1476 1490 1492 1499 1503 1506 1508 1510 1513 1511 1515 1518 1520 1523 1527 1532 1535 1539 1541 1543 1545 1547 1548 1549 1551 1553 1554 1556 1557 1558 1558 1558 1559 1558 1558 1557 1557 1556
1475 1478 1482 1483 1481 1477 1479 1483 1491 1490 1492 1499 1504 1508 1511 1513 1515 1518 1521 1524 1528 1532 1536 1539 1541 1543 1544 1546 1548 1550 1551 1553 1554 1556 1557 1557 1557 1557 1556 1556 1556 1555 1554
1474 1476 1476 1477 1477 1476 1478 1474 1478 1482 1484 1494 1498 1503 1507 1510 1513 1516 1519 1521 1526 1529 1532 1535 1538 1540 1542 1544 1546 1548 1549 1552 1553 1554 1555 1555 1555 1554 1554 1554 1554 1553 1553
1471 1472 1474 1474 1476 1474 1474 1471 1478 1475 1482 1490 1495 1499 1502 1507 1510 1513 1517 1520 1523 1527 1530 1532 1535 1538 1540 1541 1543 1545 1548 1549 1551 1551 1552 1553 1553 1552 1552 1551 1550 1550 1549
1466 1468 1471 1472 1474 1473 1472 1473 1472 1480 1480 1486 1492 1496 1500 1503 1507 1510 1514 1518 1521 1524 1527 1529 1532 1534 1537 1538 1541 1543 1544 1546 1548 1549 1550 1550 1550 1549 1549 1549 1548 1547 1546
1463 1465 1466 1470 1471 1472 1472 1470 1468 1475 1479 1481 1489 1494 1498 1500 1502 1506 1511 1515 1518 1521 1523 1526 1528 1531 1532 1536 1537 1540 1542 1542 1544 1546 1547 1547 1547 1546 1546 1546 1545 1544 1544
1460 1460 1462 1466 1466 1466 1465 1467 1463 1465 1475 1480 1485 1491 1493 1496 1498 1503 1508 1512 1514 1516 1519 1523 1525 1526 1528 1532 1534 1536 1538 1540 1542 1543 1544 1543 1543 1544 1543 1543 1542 1541 1540
1456 1456 1459 1461 1462 1463 1463 1464 1463 1465 1469 1474 1483 1486 1489 1492 1496 1500 1503 1506 1510 1512 1515 1518 1520 1521 1524 1528 1530 1532 1535 1537 1537 1538 1539 1538 1539 1540 1539 1539 1538 1538 1538
1452 1452 1454 1455 1456 1458 1459 1461 1464 1466 1474 1477 1480 1483 1486 1489 1493 1497 1500 1503 1506 1508 1510 1513 1514 1517 1520 1523 1526 1528 1529 1531 1532 1532 1533 1534 1535 1536 1536 1535 1535 1534 1534
1450 1447 1449 1451 1445 1454 1457 1460 1460 1465 1468 1474 1478 1482 1485 1486 1488 1491 1497 1501 1502 1504 1506 1507 1510 1511 1515 1518 1520 1521 1522 1524 1526 1529 1527 1528 1530 1531 1532 1531 1532 1531 1531
1448 1446 1449 1451 1446 1451 1456 1455 1461 1466 1466 1469 1475 1480 1482 1483 1486 1490 1493 1495 1498 1498 1499 1504 1505 1504 1505 1507 1511 1513 1514 1517 1519 1524 1524 1523 1523 1525 1527 1529 1529 1528 1528
1449 1448 1453 1453 1451 1452 1453 1458 1465 1464 1466 1470 1472 1477 1478 1480 1482 1486 1489 1491 1491 1493 1496 1497 1499 1500 1501 1500 1501 1503 1504 1507 1509 1512 1514 1521 1521 1520 1521 1523 1524 1524 1523
Wind_Speed
12 17 24 23 22 21 19 18 17 16 16 15 15 13 12 13 14 16 13 12 16 20 20 18 17 13 15 16 16 16 17 15 14 13 13 14 15 15 13 9 12 14 13
13 17 22 23 22 20 19 18 17 16 15 15 16 14 13 12 13 15 13 13 17 20 21 18 15 14 16 17 17 17 17 15 15 14 11 11 11 10 10 9 10 9 9
10 11 23 23 22 20 18 17 16 16 16 16 17 15 14 13 14 16 12 13 18 21 21 21 15 16 16 17 18 19 17 15 14 15 12 11 10 10 10 10 10 9 8
12 11 18 22 21 19 17 15 15 16 18 18 18 17 16 16 15 15 13 15 18 20 21 21 19 18 16 17 18 18 16 14 10 12 11 10 10 10 11 11 11 10 9
15 11 10 19 18 17 16 14 13 14 17 19 20 19 19 18 17 16 16 17 18 21 22 21 19 17 16 17 17 16 15 12 8 8 9 9 9 11 11 11 10 10 10
15 13 9 17 17 16 14 12 11 13 14 19 21 22 21 21 19 19 19 21 21 23 22 21 18 17 15 16 16 16 14 11 8 4 8 9 9 10 10 10 10 10 10
17 13 12 14 15 15 13 11 11 12 13 17 23 24 23 23 22 20 21 23 22 23 22 20 18 16 15 14 14 14 12 11 8 6 8 7 9 9 9 9 10 9 9
17 15 13 12 14 13 12 10 11 12 12 18 22 24 24 24 22 22 21 23 23 23 20 20 17 16 15 13 13 12 10 11 7 4 6 7 7 7 7 8 8 8 8
16 18 20 19 16 9 7 7 10 12 11 19 22 24 24 24 23 23 23 23 23 23 21 19 17 14 13 12 11 11 9 8 6 4 5 5 5 6 6 6 7 7 8
17 20 22 21 22 18 13 8 10 13 13 18 23 24 25 25 24 23 24 22 24 23 20 18 16 13 12 11 10 10 9 7 5 3 2 4 4 4 5 6 6 7 8
19 20 22 24 25 21 16 6 10 15 15 17 24 26 29 28 27 24 26 24 25 23 21 18 15 13 11 10 9 9 9 7 6 3 2 2 3 3 3 4 5 5 6
20 22 23 24 16 14 7 12 9 13 20 19 26 30 30 25 27 28 27 26 25 23 21 18 15 13 11 9 8 8 7 6 4 1 2 2 2 2 3 3 3 4 5
18 23 28 32 37 34 49 47 35 18 22 24 26 33 31 26 24 29 30 28 26 23 20 18 15 13 11 10 9 9 7 6 5 3 2 2 3 5 5 4 3 5 5
18 20 23 21 17 25 46 47 45 44 28 31 30 30 30 25 23 29 30 27 25 23 20 17 14 12 11 11 10 9 8 6 8 7 4 4 5 7 7 7 6 5 6
20 21 17 13 14 14 36 28 29 32 26 39 37 34 26 24 24 28 28 26 25 22 19 17 15 13 12 10 9 9 8 5 7 7 7 5 6 8 8 7 8 8 8
19 20 18 12 12 9 17 20 23 25 31 43 40 37 30 27 24 26 26 26 25 23 20 17 14 13 11 8 10 12 11 10 7 8 9 9 9 11 9 7 7 9 10
17 19 22 17 12 14 19 15 25 35 38 42 36 33 33 29 25 26 25 26 25 22 18 16 12 12 12 10 10 10 10 11 11 8 11 12 12 10 10 11 12 11 10
20 22 23 19 14 12 19 15 24 24 35 35 33 35 33 33 29 26 24 23 21 19 17 16 15 14 14 14 13 12 13 13 10 11 12 11 13 12 13 15 16 16 12
18 20 21 19 19 9 11 21 14 27 32 33 33 35 34 33 30 29 26 22 20 19 18 16 16 17 18 17 17 16 15 17 14 14 16 15 14 17 17 17 18 16 12
18 18 14 18 20 20 18 20 13 30 29 35 36 38 35 31 29 29 25 22 20 17 15 15 16 17 16 16 15 18 16 17 17 15 16 15 17 17 19 21 17 12 9
16 14 14 15 16 22 22 25 29 32 31 27 32 39 33 28 28 27 25 23 21 20 17 14 14 15 15 16 14 15 18 18 18 18 21 21 21 23 21 17 13 9 7
13 12 14 17 18 16 18 27 23 24 21 21 28 25 27 28 28 26 26 25 24 23 21 19 16 14 13 14 16 17 17 22 25 23 26 26 24 24 21 14 12 10 9
7 10 11 17 20 23 22 22 22 23 25 22 23 22 21 24 22 23 21 21 21 22 22 22 20 18 18 17 19 18 8 12 15 23 28 25 25 22 15 12 11 11 12
3 1 8 9 17 31 28 17 13 19 24 23 19 23 19 21 20 18 16 16 15 15 16 14 16 16 20 22 21 25 25 22 8 7 22 28 21 15 12 10 11 14 14
8 7 3 5 6 28 30 15 13 12 15 20 15 15 16 14 13 13 15 18 19 19 16 19 21 23 28 30 26 28 25 28 31 25 11 17 17 12 11 15 16 16 15
7 4 6 8 9 12 11 2 13 6 9 10 12 11 9 14 21 21 23 21 20 19 22 22 22 24 24 24 25 26 26 25 29 30 23 20 14 11 13 16 19 19 19
Wind_Direction
180 182 173 172 169 170 172 172 174 174 174 174 173 170 167 166 166 162 158 144 143 134 125 125 126 134 126 125 119 118 120 112 106 104 97 98 102 103 96 95 90 79 79
180 177 180 175 172 172 175 176 180 184 184 183 182 178 176 171 169 168 160 150 150 143 137 133 140 136 122 120 116 114 113 108 101 97 94 93 93 91 79 70 67 71 76
194 178 184 179 176 176 178 181 185 193 196 195 189 182 183 178 169 167 162 156 155 154 144 142 149 134 123 119 118 113 108 103 101 97 90 92 91 84 76 69 65 62 65
203 171 191 184 182 180 183 188 194 199 203 201 196 188 188 182 176 174 164 158 158 150 146 147 142 132 125 122 120 114 107 98 100 94 90 88 86 82 74 68 62 60 59
199 183 189 190 185 187 190 195 203 199 196 198 198 191 186 185 182 181 164 150 158 157 151 148 139 134 129 126 127 124 116 114 103 79 84 85 82 80 73 68 65 61 56
176 181 174 198 189 191 200 199 204 198 198 201 195 192 187 183 179 179 167 161 160 156 154 149 143 140 134 133 135 130 127 122 111 78 72 70 82 76 72 66 61 59 58
174 175 182 199 198 195 199 208 207 203 205 205 193 190 187 185 178 175 176 163 162 156 152 153 151 145 140 138 138 137 131 120 117 105 73 77 73 72 65 57 55 56 57
180 170 193 189 200 198 207 210 208 207 216 196 191 189 188 186 182 178 180 168 165 159 159 160 159 154 147 143 141 141 137 130 136 104 71 70 61 57 52 49 49 48 44
199 197 182 174 174 192 216 232 216 217 220 200 196 192 190 189 183 185 177 177 167 167 165 163 164 159 152 148 145 144 141 136 132 127 82 56 47 45 46 46 43 41 40
217 211 191 184 177 170 172 190 243 231 220 210 202 196 190 188 185 185 180 172 172 172 170 167 166 163 160 157 151 151 151 137 144 134 73 35 31 36 47 47 42 45 46
223 219 221 192 181 170 171 160 217 245 234 219 205 199 194 195 191 181 179 176 177 175 176 174 171 170 168 164 158 156 160 152 151 162 90 21 358 19 27 36 40 41 37
241 240 238 228 211 219 213 304 305 250 243 225 207 199 196 198 193 188 182 182 180 179 180 178 177 177 177 174 165 165 166 178 176 224 270 313 310 327 346 351 8 21 16
249 251 246 248 244 273 259 265 280 292 243 224 220 199 195 199 202 191 187 187 183 184 185 183 185 186 187 184 177 169 177 180 199 240 277 302 327 328 323 338 333 334 343
273 275 259 256 282 261 262 282 273 279 240 222 213 196 192 199 200 189 192 190 190 189 191 190 190 191 196 196 189 178 198 210 222 243 290 299 316 341 323 312 310 300 288
268 268 241 257 298 313 264 272 287 268 268 222 211 210 190 201 200 191 189 192 193 193 194 196 195 198 201 215 213 193 204 200 208 231 262 272 272 307 327 304 314 293 291
266 255 224 247 275 254 231 257 267 279 274 215 212 208 211 206 205 195 193 193 193 195 196 200 198 203 204 215 207 208 208 219 217 235 250 254 258 290 309 312 304 300 296
268 244 227 240 257 253 235 233 261 286 206 204 203 206 203 207 206 199 195 192 193 193 200 203 201 209 214 214 216 220 215 216 230 222 247 257 266 274 288 294 301 303 293
252 243 224 239 240 256 242 221 258 187 187 191 194 185 195 198 201 204 197 194 194 196 198 205 203 198 206 218 219 230 219 232 244 239 241 252 257 257 278 288 293 293 283
251 243 233 239 233 226 231 215 239 197 188 193 193 192 197 201 206 200 196 196 197 198 199 203 206 211 217 220 226 227 225 224 232 245 243 247 253 260 269 279 288 286 279
252 262 238 243 240 231 222 202 223 199 200 187 194 199 200 193 189 190 193 188 186 191 198 207 214 219 220 228 230 228 229 231 237 235 232 244 248 256 269 278 276 273 277
251 261 266 257 234 240 218 204 187 192 206 199 194 193 194 190 184 183 187 187 192 197 211 220 221 218 222 223 226 232 231 247 241 240 248 246 252 258 267 265 268 264 271
233 229 242 251 237 228 213 196 186 194 211 205 198 200 201 192 188 192 195 196 200 201 208 214 220 218 222 221 230 239 254 249 243 242 246 245 247 257 262 262 263 268 273
214 219 234 249 230 208 204 188 190 187 186 192 200 203 205 200 197 204 206 202 206 215 222 225 219 220 226 224 226 227 220 238 261 252 237 236 246 254 250 256 257 261 269
165 104 234 261 224 205 209 204 182 180 185 182 185 192 206 203 191 190 207 219 226 232 235 241 245 254 258 249 248 236 233 239 257 297 217 229 225 228 249 257 267 269 266
152 87 112 237 148 187 193 162 171 169 166 184 194 205 202 213 225 235 244 242 245 239 242 244 243 249 251 259 258 245 242 247 251 253 230 201 202 213 237 266 264 267 270
124 102 125 111 140 135 148 196 232 220 187 207 229 244 252 264 270 260 246 238 240 246 251 248 250 242 240 239 233 235 239 239 235 233 216 211 219 251 272 265 260 270 282